Regional Weather Roundup
Issued by NWS

Home | Current Version | Previous Version | Graphics & Text | Print | Product List | Glossary On
Versions: 1 2 3 4 5 6 7 8 9 10 11 12 13 14 15 16 17 18 19 20 21 22 23 24 25 26 27 28 29 30 31 32 33 34 35 36 37 38 39 40 41 42 43 44 45 46 47 48 49 50
000
ASUS43 KLMK 291702
RWRKY
KENTUCKY REGIONAL WEATHER ROUNDUP
NATIONAL WEATHER SERVICE LOUISVILLE KY
100 PM EDT SAT APR 29 2017

NOTE "FAIR" INDICATES FEW OR NO CLOUDS BELOW 12,000 FEET
WITH NO SIGNIFICANT WEATHER AND/OR OBSTRUCTIONS TO VISIBILITY.

KYZ001>023-026-027-061>063-070>075-291800-
WESTERN AND SOUTH CENTRAL KENTUCKY

CITY           SKY/WX    TMP DP  RH WIND       PRES   REMARKS
PADUCAH        MOSUNNY   82  66  58 S13G21    29.92F
HENDERSON        N/A    N/A N/A N/A MISG        N/A
OWENSBORO      PTSUNNY   78  67  68 E10       30.00F
HOPKINSVILLE   MOSUNNY   81  67  63 SW5       29.99F
BOWLING GREEN  CLOUDY    84  68  58 SW12      30.03F
GLASGOW        NOT AVBL
$$

KYZ024-025-028>034-038-045-046-053-291800-
NORTH CENTRAL KENTUCKY

CITY           SKY/WX    TMP DP  RH WIND       PRES   REMARKS
LOUISVILLE/SDF PTSUNNY   75  65  70 E10       30.06F
LOUISVILLE/LOU CLOUDY    74  64  71 E8        30.07F
FORT KNOX      CLOUDY    71  66  84 NE6       30.05F
$$

KYZ035>037-039>044-047>052-055>060-089>105-291800-
NORTHEAST KENTUCKY

CITY           SKY/WX    TMP DP  RH WIND       PRES   REMARKS
LEXINGTON      CLOUDY    77  65  66 N8        30.11F
COVINGTON      CLOUDY    69  64  84 E7        30.10F
FRANKFORT      CLOUDY    74  62  66 E5        30.09S
$$

KYZ054-064>069-076>088-106>120-291800-
SOUTHEAST KENTUCKY

CITY           SKY/WX    TMP DP  RH WIND       PRES   REMARKS
JACKSON        CLOUDY    83  66  56 CALM      30.12F
LONDON         CLOUDY    83  63  50 S7        30.09F
SOMERSET       NOT AVBL
MIDDLESBORO    CLOUDY    85  64  50 S10G18    30.10F
MONTICELLO     MOSUNNY   86  66  51 W20       30.09S
$$





USA.gov is the U.S. government's official web portal to all federal, state and local government web resources and services.